Weather History for London, United Kingdom

Change the Weather History Date:

Tuesday, January 29, 2013

  Actual Average Record
Temperature  
Mean Temperature 52 °F -  
Max Temperature 56 °F 46 °F 57 °F (2002)
Min Temperature 48 °F 35 °F 26 °F (2004)
Degree Days  
Heating Degree Days 13    
Growing Degree Days 2 (Base 50)    
Moisture  
Dew Point 50 °F    
Average Humidity 88    
Maximum Humidity 94    
Minimum Humidity 76    
Precipitation  
Precipitation 0.01 in - - ()
Sea Level Pressure  
Sea Level Pressure 29.62 in    
Wind  
Wind Speed 15 mph ()    
Max Wind Speed 24 mph    
Max Gust Speed 37 mph    
Visibility 6.4 miles    
Events Rain    
Averages and records for this station are not official NWS values.
T = Trace of Precipitation, MM = Missing Value Source: Averaged Metar Reports

Daily Weather History Graph

Daily Weather History Graph

Search for Another Location

Airport:

Trip Planner

Search our weather history database for the weather conditions in past years. The results will help you decide how hot, cold, wet, or windy it might be!

Date:

Astronomy

Jan. 29, 2013 Rise Set
Actual Time 7:44 AM GMT 4:46 PM GMT
Civil Twilight 7:07 AM GMT 5:22 PM GMT
Nautical Twilight 6:27 AM GMT 6:03 PM GMT
Astronomical Twilight 5:48 AM GMT 6:42 PM GMT
Moon 7:53 PM GMT 8:11 AM GMT
Length of Visible Light 10h 15m
Length of Day
9h 01m
Waning Gibbous, 95% of the Moon is Illuminated
Jan 29
Waning Gibbous
Feb 3
Last Quarter
Feb 10
New
Feb 17
First Quarter
Feb 25
Full

Hourly Weather History & Observations

Time (GMT) Temp. Dew Point Humidity Pressure Visibility Wind Dir Wind Speed Gust Speed Precip Events Conditions
12:20 AM 51.8 °F 44.6 °F 76% 29.62 in 6.2 mi WSW 17.3 mph - N/A   Scattered Clouds
12:50 AM 51.8 °F 44.6 °F 76% 29.65 in 6.2 mi WSW 17.3 mph - N/A   Scattered Clouds
1:20 AM 51.8 °F 44.6 °F 76% 29.62 in 6.2 mi WSW 19.6 mph - N/A   Unknown
1:50 AM 51.8 °F 44.6 °F 76% 29.65 in 6.2 mi WSW 18.4 mph - N/A   Unknown
2:20 AM 51.8 °F 44.6 °F 76% 29.65 in 5.0 mi WSW 16.1 mph - N/A   Unknown
2:50 AM 50 °F 46 °F 81% 29.67 in 7 mi SW 15.0 mph - - Rain Light Rain Showers
2:50 AM 51.8 °F 46.4 °F 82% 29.65 in 6.2 mi SW 15.0 mph - N/A Rain Light Rain
3:20 AM 50.0 °F 46.4 °F 87% 29.65 in 5.6 mi SW 13.8 mph - N/A   Unknown
3:50 AM 50.0 °F 46.4 °F 87% 29.65 in 5.6 mi SW 13.8 mph - N/A Rain Light Rain
4:20 AM 50.0 °F 46.4 °F 87% 29.65 in 5.6 mi SW 15.0 mph - N/A Rain Light Rain
4:50 AM 50.0 °F 46.4 °F 87% 29.62 in 5.6 mi SW 15.0 mph - N/A Rain Light Rain
5:20 AM 48.2 °F 46.4 °F 93% 29.62 in 6.2 mi SW 12.7 mph - N/A   Mostly Cloudy
5:50 AM 49 °F 47 °F 92% 29.64 in 11 mi SW 11.5 mph - - Rain Rain
5:50 AM 48.2 °F 46.4 °F 93% 29.62 in 6.2 mi SW 12.7 mph - N/A   Mostly Cloudy
6:20 AM 48.2 °F 46.4 °F 93% 29.62 in 6.2 mi SW 10.4 mph - N/A   Mostly Cloudy
6:50 AM 50.0 °F 46.4 °F 87% 29.62 in 5.0 mi SW 9.2 mph - N/A   Mostly Cloudy
7:20 AM 50.0 °F 48.2 °F 94% 29.62 in 4.3 mi SW 10.4 mph - N/A   Mostly Cloudy
7:50 AM 50.0 °F 48.2 °F 94% 29.62 in 6.2 mi WSW 10.4 mph - N/A   Mostly Cloudy
8:20 AM 51.8 °F 50.0 °F 94% 29.62 in 6.2 mi WSW 10.4 mph - N/A   Mostly Cloudy
8:50 AM 53 °F 51 °F 91% 29.64 in 22 mi SW 10.4 mph - - Rain Light Rain Showers
8:50 AM 53.6 °F 50.0 °F 88% 29.62 in 6.2 mi SW 10.4 mph - N/A   Mostly Cloudy
9:20 AM 53.6 °F 50.0 °F 88% 29.62 in 6.2 mi SW 11.5 mph - N/A   Mostly Cloudy
9:50 AM 55.4 °F 51.8 °F 88% 29.62 in 6.2 mi SW 17.3 mph - N/A   Mostly Cloudy
10:20 AM 55.4 °F 51.8 °F 88% 29.62 in 6.2 mi SW 17.3 mph - N/A   Mostly Cloudy
10:50 AM 55.4 °F 51.8 °F 88% 29.65 in 6.2 mi SW 16.1 mph - N/A   Mostly Cloudy
11:20 AM 55.4 °F 51.8 °F 88% 29.65 in 6.2 mi SW 18.4 mph - N/A   Mostly Cloudy
11:50 AM 55 °F 52 °F 88% 29.65 in 22 mi SW 17.3 mph - -   Overcast
11:50 AM 55.4 °F 51.8 °F 88% 29.65 in 6.2 mi SW 17.3 mph - N/A   Mostly Cloudy
12:20 PM 55.4 °F 51.8 °F 88% 29.62 in 6.2 mi SW 15.0 mph - N/A   Mostly Cloudy
12:50 PM 55.4 °F 51.8 °F 88% 29.62 in 6.2 mi SW 16.1 mph - N/A   Mostly Cloudy
1:20 PM 55.4 °F 51.8 °F 88% 29.62 in 6.2 mi SW 18.4 mph - N/A   Mostly Cloudy
1:50 PM 57.2 °F 51.8 °F 82% 29.62 in 6.2 mi SW 19.6 mph - N/A   Mostly Cloudy
2:20 PM 57.2 °F 51.8 °F 82% 29.62 in 6.2 mi WSW 20.7 mph 33.4 mph N/A   Mostly Cloudy
2:50 PM 56 °F 52 °F 83% 29.62 in 19 mi SW 20.7 mph - -   Overcast
2:50 PM 57.2 °F 51.8 °F 82% 29.62 in 6.2 mi WSW 20.7 mph - N/A   Mostly Cloudy
3:20 PM 57.2 °F 51.8 °F 82% 29.62 in 6.2 mi WSW 21.9 mph - N/A   Mostly Cloudy
3:50 PM 57.2 °F 51.8 °F 82% 29.59 in 6.2 mi WSW 24.2 mph - N/A   Mostly Cloudy
4:20 PM 55.4 °F 51.8 °F 88% 29.59 in 6.2 mi SW 20.7 mph - N/A   Mostly Cloudy
4:50 PM 55.4 °F 51.8 °F 88% 29.62 in 6.2 mi SW 19.6 mph - N/A   Mostly Cloudy
5:20 PM 55.4 °F 51.8 °F 88% 29.62 in 6.2 mi SW 23.0 mph 36.8 mph N/A   Mostly Cloudy
5:50 PM 55 °F 53 °F 89% 29.61 in 9 mi SW 19.6 mph - - Rain Light Rain Showers
5:50 PM 55.4 °F 51.8 °F 88% 29.62 in 6.2 mi SW 19.6 mph - N/A   Mostly Cloudy
6:20 PM 53.6 °F 51.8 °F 94% 29.59 in 5.6 mi SSW 13.8 mph - N/A Rain Light Rain
6:50 PM 53.6 °F 51.8 °F 94% 29.59 in 4.3 mi SW 17.3 mph - N/A Rain Rain
7:20 PM 53.6 °F 51.8 °F 94% 29.59 in 5.6 mi SW 19.6 mph - N/A Rain Light Rain
7:50 PM 53.6 °F 51.8 °F 94% 29.59 in 3.7 mi SW 19.6 mph - N/A Rain Light Rain
8:20 PM 53.6 °F 51.8 °F 94% 29.59 in 4.3 mi SW 18.4 mph - N/A Rain Light Rain
8:50 PM 54 °F 52 °F 90% 29.59 in 9 mi SSW 23.0 mph - - Rain Light Drizzle
8:50 PM 53.6 °F 51.8 °F 94% 29.59 in 5.6 mi SW 18.4 mph 29.9 mph N/A Rain Light Rain
9:20 PM 53.6 °F 51.8 °F 94% 29.59 in 3.7 mi SW 21.9 mph - N/A Rain Light Rain
9:50 PM 53.6 °F 51.8 °F 94% 29.59 in 3.7 mi SW 20.7 mph 32.2 mph N/A Rain Light Rain
10:20 PM 53.6 °F 51.8 °F 94% 29.56 in - SW 17.3 mph 29.9 mph N/A Rain Light Rain
10:50 PM 53.6 °F 51.8 °F 94% 29.56 in 5.0 mi SW 15.0 mph - N/A Rain Light Rain
11:20 PM 53.6 °F 51.8 °F 94% 29.56 in 6.2 mi SW 15.0 mph - N/A Rain Light Rain
11:50 PM 54 °F 52 °F 91% 29.56 in 14 mi SSW 17.3 mph - - Rain Rain
11:50 PM 53.6 °F 51.8 °F 94% 29.56 in 6.2 mi SW 15.0 mph - N/A   Mostly Cloudy